| time (UTC) | temp F | wind direction | speed MPH | gust MPH | rain 1hr in | rain 24hr in | rain mn in | humidity % | barometer mb |
| 20260904121639 | 59 | 250 | 25.0 | 35.0 | 0.00 | 0.00 | 0.00 | 93 | |
| 20260904111640 | 57 | 260 | 28.0 | 38.0 | 0.00 | 0.00 | 0.00 | 99 | |
| 20260904102041 | 57 | 260 | 30.0 | 46.0 | 0.00 | 0.00 | 0.00 | 99 | |
| 20260904091639 | 55 | 270 | 33.0 | 44.0 | 0.00 | 0.00 | 0.00 | 99 | |
| 20260904081639 | 55 | 260 | 30.0 | 47.0 | 0.00 | 0.00 | 0.00 | 99 | |
| 20260904071841 | 55 | 260 | 33.0 | 46.0 | 0.00 | 0.00 | 0.00 | 99 | |
| 20260904061639 | 55 | 260 | 30.0 | 43.0 | 0.00 | 0.00 | 0.00 | 93 | |
| 20260904051640 | 54 | 270 | 28.0 | 36.0 | 0.00 | 0.00 | 0.00 | 99 | |
| 20260904042042 | 54 | 270 | 31.0 | 43.0 | 0.00 | 0.00 | 0.00 | 99 | |
| 20260904031640 | 54 | 270 | 26.0 | 36.0 | 0.00 | 0.00 | 0.00 | 99 | |
| 20260904021641 | 54 | 280 | 28.0 | 38.0 | 0.00 | 0.00 | 0.00 | 99 | |
| 20260904011940 | 54 | 280 | 28.0 | 37.0 | 0.00 | 0.00 | 0.00 | 99 | |
| 20260904001640 | 54 | 280 | 26.0 | 35.0 | 0.00 | 0.00 | 0.00 | 93 | |
| 20260903231639 | 54 | 280 | 31.0 | 41.0 | 0.00 | 0.00 | 0.00 | 93 | |
| 20260903222041 | 52 | 270 | 30.0 | 37.0 | 0.00 | 0.00 | 0.00 | 99 | |
| 20260903211639 | 52 | 270 | 29.0 | 36.0 | 0.00 | 0.00 | 0.00 | 99 | |
| 20260903201640 | 52 | 270 | 29.0 | 36.0 | 0.00 | 0.00 | 0.00 | 99 | |
| 20260903191840 | 52 | 270 | 33.0 | 43.0 | 0.00 | 0.00 | 0.00 | 99 | |
| 20260903181639 | 52 | 270 | 30.0 | 37.0 | 0.00 | 0.00 | 0.00 | 99 | |
| 20260903171639 | 52 | 270 | 36.0 | 45.0 | 0.00 | 0.00 | 0.00 | 99 | |
| 20260903161939 | 52 | 260 | 37.0 | 51.0 | 0.00 | 0.00 | 0.00 | 99 | |
| 20260903151641 | 54 | 270 | 25.0 | 33.0 | 0.00 | 0.00 | 0.00 | 87 | |
| 20260903141639 | 57 | 260 | 26.0 | 35.0 | 0.00 | 0.00 | 0.00 | 71 | |
| 20260903131840 | 63 | 270 | 25.0 | 33.0 | 0.00 | 0.00 | 0.00 | 63 |